Погода Шауляй

Поиск расширенной информации на нашем сайте:

Полезная информация:

Новости сайта



02.01.2020
Опубликован Долгосрочный прогноз погоды по городам России и ближнего зарубежья на январь 2020 года.
Карты: Прогноз на январь и февраль 2020 года, Сравнение прогнозируемой аномалии приземной температуры воздуха на январь 2020 года по разным моделям.




Погода Шауляй - сегодня

Время (UTC), дата Ветер
(°,м/с) 
Видим.   Явления Облачность Т
(°С)
Тd
(°С)
f(%) Тe
(°С)
Pmin
(гПа)
dP
(гПа)
Po
(мм)
O2
(г/м3)
Тmin Tmax R s Состояние
почвы
06 01.06.20 030 (СВ) 3-7{08}  20000 м    1/0 верхняя 
[Ci fib]
+12.9 +1.5 46 +13  1023.7  0.1  758  291  +6.5        сухая 
09 01.06.20 040 (СВ) 4-8{10}  19000 м    8/3 1500 м средняя, верхняя 
[Cu hum|Ac lent|Ci sp]
+16.5 +2.5 39 +17  1022.7  -0.8  757  287           
12 01.06.20 360 (С) 6-11{13}  20000 м    3/3 1500 м 
[Cu hum]
+17.2 +3.1 39 +17  1020.6  -1.9  756  286           
15 01.06.20 360 (С) 5-10{13}  20000 м    8/3 1500 м средняя 
[Cu hum|Ac und]
+16.7 +4.3 44 +17  1019.4  -1.2  755  286           
18 01.06.20 020 (С) 5-11{12}  18000 м  слаб. ливневой дождь  8/8 1500 м кучево-дожд. 
[Cb cap]
+14.7 +6.9 59 +14  1019  -0.6  755  287    +18.5  0.0     
21 01.06.20 060 (СВ) 2-4{11}  20000 м  {ливн. осадки}  1/1 1500 м 
[Sc]
+10.2 +4.9 70 +10  1019.9  0.8  755  293           
00 02.06.20 тихо () -2{04}  20000 м  {ливн. осадки}  ясно 
+5.9 +2.7 80 +6  1019.6  -0.5  755  297      0.0     
03 02.06.20 тихо () -3{03}  20000 м    ясно 
+5.4 +2.1 79 +5  1018.9  -0.7  754  298           
06 02.06.20 020 (С) 3-5{06}  20000 м    1/0 верхняя 
[Ci fib]
+11.2 +5.3 67 +11  1018  -0.6  754  291  +4.4    0.0    сухая 
09 02.06.20 030 (СВ) 3-7{10}  18000 м    4/4 1500 м 
[Cu med, cong]
+16.2 +5.4 49 +17  1016.1  -1.5  753  285           
12 02.06.20 050 (СВ) 3-8{10}  20000 м    4/3 1500 м средняя 
[Sc|Ac trans]
+17.1 +4.1 42 +18  1014.4  -1.7  751  284           
15 02.06.20 040 (СВ) 4-9{11}  20000 м    5/3 1500 м средняя 
[Cu med, cong|Ac trans]
+17.7 +3.9 40 +18  1012.8  -1.6  750  283           
18 02.06.20 010 (С) 3-7{10}  20000 м    4/0 средняя 
[Ac trans]
+15 +4.3 49 +15  1012  -0.9  749  286    +18.6       
21 02.06.20 020 (С) 1-4{07}  20000 м    ясно 
+9.5 +3.9 68 +11  1012.3  749  291           
00 03.06.20 тихо () -3{04}  20000 м    8/0 средняя 
[Ac lent]
+7.4 +4.1 80 +7  1011.3  -1  749  293           
03 03.06.20 тихо () -3{03}  20000 м    9/0 средняя 
[Ac trans]
+7.7 +3.6 75 +8  1010.2  -1  748  293           
06 03.06.20 080 (В) 3-7{07}  20000 м  {ливн. осадки}  8/0 средняя 
[Ac trans]
+12.3 +6.9 70 +12  1009.6  -0.4  748  287  +6.7    0.0    сухая 
09 03.06.20 070 (В) 3-6{08}  20000 м    10/10 840 м 
[Sc]
+12.6 +7.7 72 +12  1009.6  748  287           
12 03.06.20 080 (В) 3-6{08}  20000 м    10/10 1300 м 
[Cu Sc]
+14 +8.6 70 +14  1008.8  -0.7  747  285           
15 03.06.20 060 (СВ) 2-4{08}  20000 м    10/10 750 м 
[Sc]
+14.2 +8.7 69 +15  1008.3  -0.5  747  284           
18 03.06.20 050 (СВ) 2-4{07}  20000 м    3/1 1500 м верхняя 
[Sc|Ci fib]
+13.3 +8.8 74 +14  1007.4  -0.9  746  285    +14.9       
21 03.06.20 тихо () -2{05}  20000 м    3/3 1000 м 
[Sc]
+8.6 +7.1 90 +9  1006.8  -0.8  745  290           
00 04.06.20 тихо () -2{05}  9000 м  местами туман поземный  3/0 верхняя 
[Ci fib]
+7.4 +6.1 91 +7  1005.7  -1.2  745  291           
03 04.06.20 тихо () -2{02}  8000 м  местами туман поземный  4/1 100 м средняя 
[St|Ac trans]
+7.3 +6.7 96 +7  1004.8  -0.9  744  291           
06 04.06.20 070 (В) 1-3{05}  19000 м    8/8 180 м 
[St]
+11.6 +9.7 88 +14  1003.9  -0.7  743  286  +6.1        сухая 
Время (UTC), дата Ветер
(°,м/с) 
Видим.   Явления Облачность Т
(°С)
Тd
(°С)
f(%) Тe
(°С)
Pmin
(гПа)
dP
(гПа)
Po
(мм)
O2
(г/м3)
Тmin Tmax R s Состояние
почвы

Для получения пояснительной информации подведите курсор к названию столбца.

ПОГОДА Шауляй - архив

Всё, что Вы хотите узнать о погоде Шауляй - удобно и подробно!

Выберите нужную дату (начиная с 1 января 2019* года) и нажмите кнопку "Найти".
Будут отображены архивные сводки погоды по пункту Шауляй, начиная с указанной даты.


Отображать данные в формате CSV (для использования в таблицах Excel)


Внимание! Наш архив погоды предназначен исключительно для личного некоммерческого использования в познавательных целях. Если Вам необходимы официальные справки о состоянии погоды (для производственных, юридических, коммерческих и т.п. целей), обращайтесь в органы Росгидромета.

*Примечание: данная дата относится к архиву по метеостанциям СССР (Россия, СНГ, Балтия).
Архив по метеостанциям Зарубежной Европы и Азии (кроме Китая) хранится 10 дней, по другим регионам земного шара (Китай, Африка, Америка, Австралия, Океания) - 1 день.

Шауляй - район местоположения метеостанции


Название, широта, долгота, высота метеостанции:
Шауляй 55.9°ш. 23.3°д. 107 м над ур. моря [Литва]

Дополнительная информация

В oтличие oт бoльшинства пoгoдных сайтoв мы публикуем пoдрoбную метеoинфoрмацию в детальнoм прoфессиoнальнoм фoрмате.

Характеристики температуры и влажнoсти вoздуха измеряются на высoте 2 м в тени вдали oт зданий и деревьев.
Скoрoсть ветра измеряется на высoте 10 м (на урoвне рoста челoвека скoрoсть ветра ниже в 1.5-2 раза). Если метеoстанция нахoдится в гoрoде или в лесу, тo скoрoсть ветра занижена на 2-4 м/с пo сравнению с oткрытым местoм. Скoрoсть ветра над акватoриями крупных рек и oзёр, а также на вершинах хoлмoв на 2-5 м/с выше, чем в oбычных услoвиях.
Атмoсфернoе давление в разных тoчках местнoсти мoжет значительнo oтличаться oт давления на метеoстанции, в зависимoсти oт услoвий рельефа (при пoдъёме на 10 м давление пoнижается примернo на 1 мм рт.ст.).